Location: Eaton Estates
(41.3089°N, 82.0057°W)
Time: 08:39:10
(UTC+00:00)

Cosmos 1908 - Pass Details

Date: 17 June 2021
Orbit: 509 x 530 km, 82.5° (Epoch: 27 July)

Event Time Altitude Azimuth Distance (km) Brightness Sun altitude
Rises 03:07:42 0° 350° (N) 2,668 8.1 -17.5°
Reaches altitude 10° 03:09:52 10° 348° (NNW) 1,771 7.0 -17.7°
Maximum altitude 03:13:45 73° 264° (W) 550 3.3 -18.1°
Enters shadow 03:15:06 38° 189° (S) 807 3.8 -18.3°
